Location: *
(33.6842°N, 117.7925°W)
Time: 17:04:08
(UTC+00:00)

Cosmos 1602 Rocket - Pass Details

Date: 21 October 2019
Orbit: 604 x 633 km, 82.5° (Epoch: 11 November)

Event Time Altitude Azimuth Distance (km) Brightness Sun altitude
Rises 13:34:54 0° 196° (SSW) 2,858 6.9 -6.1°
Reaches altitude 10° 13:37:10 10° 202° (SSW) 1,954 6.0 -5.6°
Maximum altitude 13:41:22 51° 278° (W) 762 3.7 -4.8°
Drops below altitude 10° 13:45:36 10° 355° (N) 1,956 6.0 -3.9°
Sets 13:47:52 0° 1° (N) 2,862 6.9 -3.5°
